Terre Haute, IN

6:34 AM EDT on August 29, 2016 (GMT -0400)
Terre Haute International-Hulman

Weather History for KHUF - October, 2012

Change the Weather History Date:

Monday, October 15, 2012

  Actual Average Record
Temperature  
Mean Temperature 53 °F 54 °F  
Max Temperature 65 °F 66 °F 85 °F (1968)
Min Temperature 41 °F 43 °F 26 °F (2006)
Degree Days  
Heating Degree Days 12 11  
Month to date heating degree days 171 134  
Since 1 July heating degree days 260 212  
Cooling Degree Days 0 0  
Month to date cooling degree days 2 12  
Year to date cooling degree days 1582 990  
Growing Degree Days 4 (Base 50)    
Moisture  
Dew Point 41 °F    
Average Humidity 59    
Maximum Humidity 83    
Minimum Humidity 34    
Precipitation  
Precipitation 0.00 in 0.12 in 0.83 in (1966)
Month to date precipitation 1.20 1.71  
Year to date precipitation 22.93 36.41  
Sea Level Pressure  
Sea Level Pressure 29.93 in    
Wind  
Wind Speed 6 mph (WNW)    
Max Wind Speed 17 mph    
Max Gust Speed 25 mph    
Visibility 10 miles    
Events      
T = Trace of Precipitation, MM = Missing Value Source: NWS Daily Summary

Daily Weather History Graph

Daily Weather History Graph

Search for Another Location

Airport or City:

Trip Planner

Search our weather history database for the weather conditions in past years. The results will help you decide how hot, cold, wet, or windy it might be!

Date:

Astronomy

Oct. 15, 2012 Rise Set
Actual Time 7:59 AM EDT 7:09 PM EDT
Civil Twilight 7:32 AM EDT 7:36 PM EDT
Nautical Twilight 7:01 AM EDT 8:07 PM EDT
Astronomical Twilight 6:30 AM EDT 8:38 PM EDT
Moon 8:09 AM EDT (10/15) 7:09 PM EDT (10/15)
Length of Visible Light 12h 03m
Length of Day
11h 09m
New Moon, 0% of the Moon is Illuminated
Oct 15
New Moon
Oct 21
First Quarter
Oct 29
Full
Nov 6
Last Quarter
Nov 13
New

Hourly Weather History & Observations

Time (EDT) Temp. Windchill Dew Point Humidity Pressure Visibility Wind Dir Wind Speed Gust Speed Precip Events Conditions
12:37 AM 55.4 °F - 46.4 °F 72% 29.86 in 10.0 mi West 6.9 mph - N/A   Overcast
12:45 AM 55.4 °F - 46.4 °F 72% 29.87 in 10.0 mi West 12.7 mph 18.4 mph N/A   Overcast
12:53 AM 55.0 °F - 46.9 °F 74% 29.86 in 10.0 mi West 9.2 mph - N/A   Mostly Cloudy
1:08 AM 53.6 °F - 46.4 °F 77% 29.87 in 10.0 mi WNW 8.1 mph - N/A   Scattered Clouds
1:53 AM 53.1 °F - 46.0 °F 77% 29.86 in 10.0 mi West 4.6 mph - N/A   Mostly Cloudy
2:53 AM 53.1 °F - 45.0 °F 74% 29.87 in 10.0 mi WNW 8.1 mph 18.4 mph N/A   Partly Cloudy
3:53 AM 53.1 °F - 44.1 °F 71% 29.86 in 10.0 mi WNW 8.1 mph - N/A   Mostly Cloudy
4:35 AM 51.8 °F - 44.6 °F 76% 29.86 in 10.0 mi WNW 11.5 mph - N/A   Scattered Clouds
4:53 AM 51.1 °F - 43.0 °F 74% 29.86 in 10.0 mi WNW 5.8 mph - N/A   Clear
5:53 AM 48.9 °F - 41.0 °F 74% 29.88 in 10.0 mi WNW 6.9 mph - N/A   Clear
6:53 AM 46.0 °F 44.8 °F 39.9 °F 79% 29.90 in 10.0 mi West 3.5 mph - N/A   Clear
7:53 AM 45.0 °F 43.5 °F 39.9 °F 82% 29.92 in 10.0 mi WSW 3.5 mph - N/A   Clear
8:53 AM 46.9 °F - 41.0 °F 80% 29.94 in 10.0 mi WSW 3.5 mph - N/A   Clear
9:53 AM 52.0 °F - 43.0 °F 71% 29.96 in 10.0 mi WNW 10.4 mph - N/A   Clear
10:53 AM 55.0 °F - 39.9 °F 57% 29.96 in 10.0 mi NW 12.7 mph - N/A   Clear
11:53 AM 57.9 °F - 37.0 °F 46% 29.97 in 10.0 mi NW 13.8 mph 21.9 mph N/A   Clear
12:53 PM 60.1 °F - 36.0 °F 41% 29.98 in 10.0 mi NW 13.8 mph 20.7 mph N/A   Clear
1:53 PM 62.1 °F - 35.1 °F 37% 29.97 in 10.0 mi NW 11.5 mph 19.6 mph N/A   Clear
2:53 PM 64.0 °F - 36.0 °F 35% 29.96 in 10.0 mi WNW 8.1 mph 17.3 mph N/A   Clear
3:53 PM 64.0 °F - 36.0 °F 35% 29.96 in 10.0 mi NW 11.5 mph 19.6 mph N/A   Clear
4:53 PM 64.0 °F - 36.0 °F 35% 29.96 in 10.0 mi NW 10.4 mph - N/A   Clear
5:53 PM 63.0 °F - 37.0 °F 38% 29.97 in 10.0 mi WNW 6.9 mph - N/A   Clear
6:53 PM 60.1 °F - 37.9 °F 44% 29.97 in 10.0 mi WNW 4.6 mph - N/A   Clear
7:53 PM 53.1 °F - 37.9 °F 57% 29.97 in 10.0 mi Calm Calm - N/A   Clear
8:53 PM 50.0 °F - 39.0 °F 66% 29.98 in 10.0 mi Calm Calm - N/A   Clear
9:53 PM 46.9 °F - 39.0 °F 74% 29.98 in 10.0 mi Calm Calm - N/A   Clear
10:53 PM 45.0 °F - 39.0 °F 80% 29.99 in 10.0 mi Calm Calm - N/A   Clear
11:53 PM 44.1 °F - 39.9 °F 85% 29.99 in 10.0 mi Calm Calm - N/A   Clear